GEO-KOMPSAT-2A (43823 NORAD) Tracking and Keplerian Element Data

This shows tracking and keplerian element data for the satellite.

Feedback or suggestion? Click here.




ElementValue
Catalog43823
NameGEO-KOMPSAT-2A
Epoch Orbit231
Epoch Day201.85703446
Epoch Year2019
RAAN215.8637
Inclination0.0438
Eccentricity0.0002228
Argument of Perigee243.5742
Mean Anonmoly275.6724
Mean Motion1.00273307
Decay Rate-3.49E-06
L11 43823U 18100A 19201.85703446 -.00000349 00000-0 00000-0 0 9997
L22 43823 0.0438 215.8637 0002228 243.5742 275.6724 1.00273307 2312

Live tracking and technical data element details for GEO-KOMPSAT-2A (NORAD 43823). GEO-KOMPSAT-2A can be tracked NOW for your location showing map with azimuth and elevation plus other details from your city location.

Track the satellite on the map from your city or location and see movement details for azimuth, elevation, latitude, longitude, range, height, and movement on the map or in text.







IsCatalogInMostPopularTable: catalog: 43823, numindb: 73
Update: records affected: 1



GetName: 43823 GEO-KOMPSAT-2A

Hit Count: updated at: Mon, 22 Jul 2019 04:38:00 GMT